Погода в Ивано-Франково

Украина / Львовская область     49˚55′13″N   23˚44′05″E
темп.,
°C
ветер,
м/с
пор.,
м/с
влажн.,
%
обл.,
%
осадки,
мм/ч
давл.,
гПа
погр.,
м
16 января, сб
сб1623:00−7˚з51093100 0.4 1017790
02:00−12˚ссз5889100 0.9 1018438
05:00−13˚сз488997 0.0 1019409
08:00−12˚зсз488994 0.1 1019622
11:00−10˚зсз4782100 0.1 1019744
14:00−8˚зсз4780100 0.1 1017829
17:00−8˚з3789100 0.1 1016479
20:00−7˚юз41092100 0.1 1015464
17 января, вс
вс1723:00−6˚зюз5109399 0.2 1014656
02:00−7˚зюз4109398 0.5 1014639
05:00−7˚зюз399498 0.2 1015461
08:00−8˚зюз379591 0.3 1016288
11:00−6˚з478641 0.0 1018449
14:00−7˚сз358753 0.1 1019409
17:00−9˚сз369399 0.0 1019276
20:00−11˚ссз259591 0.0 1022221
18 января, пн
пн1823:00−12˚зсз369092 0.0 1022285
02:00−11˚зсз479095 0.0 1023506
05:00−11˚сз3690100 0.1 1023499
08:00−13˚зсз3693100 0.1 1024397
11:00−11˚зсз358799 0.1 1024496
14:00−10˚зсз358599 0.1 1023490
17:00−11˚зсз2394100 0.0 1024102
20:00−12˚зюз129566 0.0 102424
19 января, вт
вт1923:00−12˚зюз239254 0.0 102479
02:00−11˚зюз268977 0.0 1024191
05:00−11˚зюз378987 0.0 1023196
08:00−7˚юз499493 0.3 1022380
11:00−5˚зюз5109095 0.3 1021485
14:00−3˚зюз6119297 0.6 1020551
17:00−4˚зюз41087100 0.2 1020397
20:00−6˚юз41082100 0.2 1020299
20 января, ср
ср2023:00−5˚юз51379100 0.0 1019469
02:00−3˚юз51384100 0.0 1018619
05:00−3˚ююз51294100 0.3 1016567
08:00−3˚юз51294100 0.8 1016445
11:00юз5107899 0.2 1016425
14:00+1˚юз5138199 0.2 1015544
17:00+1˚ююз6138174 0.0 1015430
20:00ююз6148060 0.0 1015423